Year,Month,Day,Hour,Minute,Value (Times are PST for temperature in C)
2007,07,15,00,00,19.40
2007,07,15,00,01,19.30
2007,07,15,00,02,19.20
2007,07,15,00,03,19.10
2007,07,15,00,04,19.10
2007,07,15,00,05,19.10
2007,07,15,00,06,19.00
2007,07,15,00,07,18.90
2007,07,15,00,08,18.90
2007,07,15,00,09,18.90
2007,07,15,00,10,18.80
2007,07,15,00,11,18.80
2007,07,15,00,12,18.80
2007,07,15,01,02,18.00
2007,07,15,01,03,18.00
2007,07,15,01,04,18.00
2007,07,15,01,05,18.00
2007,07,15,01,06,18.00
2007,07,15,01,07,18.10
2007,07,15,01,08,18.10
2007,07,15,01,09,18.10
2007,07,15,01,10,18.10
2007,07,15,01,11,18.10
2007,07,15,01,12,18.10
2007,07,15,01,13,18.10
2007,07,15,01,14,18.10
2007,07,15,01,15,18.10
2007,07,15,01,16,18.10
2007,07,15,01,17,18.10
2007,07,15,01,18,18.10
2007,07,15,01,19,18.10
2007,07,15,01,20,18.10
2007,07,15,01,21,18.10
2007,07,15,01,22,18.10
2007,07,15,01,23,18.00
2007,07,15,01,24,18.00
2007,07,15,01,25,18.00
2007,07,15,01,26,18.00
2007,07,15,01,27,18.00
2007,07,15,01,28,18.00
2007,07,15,01,29,18.00
2007,07,15,01,30,18.00
2007,07,15,01,31,18.10
2007,07,15,01,32,18.00
2007,07,15,01,33,18.10
2007,07,15,01,34,18.10
2007,07,15,01,35,18.10
2007,07,15,01,36,18.10
2007,07,15,01,37,18.10
2007,07,15,01,38,18.10
2007,07,15,01,39,18.10
2007,07,15,01,40,18.10
2007,07,15,01,41,18.10
2007,07,15,01,42,18.10
2007,07,15,01,43,18.10
2007,07,15,01,44,18.20
2007,07,15,01,45,18.20
2007,07,15,01,46,18.20
2007,07,15,01,47,18.20
2007,07,15,01,48,18.20
2007,07,15,01,49,18.20
2007,07,15,01,50,18.20
2007,07,15,01,51,18.20
2007,07,15,01,52,18.20
2007,07,15,01,53,18.20
2007,07,15,01,54,18.20
2007,07,15,01,55,18.20
2007,07,15,01,56,18.20
2007,07,15,01,57,18.20
2007,07,15,01,58,18.20
2007,07,15,01,59,18.20
2007,07,15,02,00,18.20
2007,07,15,02,01,18.20
2007,07,15,02,02,18.20
2007,07,15,02,03,18.20
2007,07,15,02,04,18.30
2007,07,15,02,05,18.30
2007,07,15,02,06,18.30
2007,07,15,02,07,18.30
2007,07,15,02,08,18.30
2007,07,15,02,09,18.20
2007,07,15,02,10,18.20
2007,07,15,02,11,18.20
2007,07,15,02,12,18.20
2007,07,15,02,13,18.20
2007,07,15,02,14,18.20
2007,07,15,02,15,18.20
2007,07,15,02,16,18.20
2007,07,15,02,17,18.20
2007,07,15,02,18,18.20
2007,07,15,02,19,18.20
2007,07,15,02,20,18.20
2007,07,15,02,21,18.20
2007,07,15,02,22,18.20
2007,07,15,02,23,18.20
2007,07,15,02,24,18.20
2007,07,15,02,25,18.20
2007,07,15,02,26,18.20
2007,07,15,02,27,18.20
2007,07,15,02,28,18.20
2007,07,15,02,29,18.20
2007,07,15,02,30,18.20
2007,07,15,02,31,18.20
2007,07,15,02,32,18.20
2007,07,15,02,33,18.20
2007,07,15,02,34,18.20
2007,07,15,02,35,18.20
2007,07,15,02,36,18.20
2007,07,15,02,37,18.20
2007,07,15,02,38,18.20
2007,07,15,02,39,18.20
2007,07,15,02,40,18.20
2007,07,15,02,41,18.20
2007,07,15,02,42,18.20
2007,07,15,02,43,18.20
2007,07,15,02,44,18.20
2007,07,15,02,45,18.20
2007,07,15,02,46,18.20
2007,07,15,02,47,18.20
2007,07,15,02,48,18.20
2007,07,15,02,49,18.10
2007,07,15,02,50,18.10
2007,07,15,02,51,18.10
2007,07,15,02,52,18.10
2007,07,15,02,53,18.10
2007,07,15,02,54,18.10
2007,07,15,02,55,18.10
2007,07,15,02,56,18.10
2007,07,15,02,57,18.00
2007,07,15,02,58,18.00
2007,07,15,02,59,18.00
2007,07,15,03,00,18.00
2007,07,15,03,01,18.00
2007,07,15,03,02,17.90
2007,07,15,03,03,17.90
2007,07,15,03,04,17.90
2007,07,15,03,05,17.90
2007,07,15,03,06,17.90
2007,07,15,03,07,17.90
2007,07,15,03,08,17.90
2007,07,15,03,09,17.90
2007,07,15,03,10,17.90
2007,07,15,03,11,18.00
2007,07,15,03,12,18.00
2007,07,15,03,13,18.00
2007,07,15,03,14,18.00
2007,07,15,03,15,18.00
2007,07,15,03,16,18.00
2007,07,15,03,17,18.00
2007,07,15,03,18,18.00
2007,07,15,03,19,18.00
2007,07,15,03,20,18.00
2007,07,15,03,21,18.00
2007,07,15,03,22,18.00
2007,07,15,03,23,18.00
2007,07,15,03,24,18.00
2007,07,15,03,25,18.00
2007,07,15,03,26,18.00
2007,07,15,03,27,18.00
2007,07,15,03,28,18.00
2007,07,15,03,29,18.00
2007,07,15,03,30,18.00
2007,07,15,03,31,18.00
2007,07,15,03,32,18.00
2007,07,15,03,33,18.00
2007,07,15,03,34,18.00
2007,07,15,03,35,17.90
2007,07,15,03,36,17.90
2007,07,15,03,37,17.90
2007,07,15,03,38,17.90
2007,07,15,03,39,17.90
2007,07,15,03,40,17.90
2007,07,15,03,41,17.90
2007,07,15,03,42,17.90
2007,07,15,03,43,17.90
2007,07,15,03,44,17.90
2007,07,15,03,45,17.90
2007,07,15,03,46,17.90
2007,07,15,03,47,17.80
2007,07,15,03,48,17.80
2007,07,15,03,49,17.80
2007,07,15,03,50,17.80
2007,07,15,03,51,17.80
2007,07,15,03,52,17.90
2007,07,15,03,53,17.90
2007,07,15,03,54,17.80
2007,07,15,03,55,17.80
2007,07,15,03,56,17.80
2007,07,15,03,57,17.80
2007,07,15,03,58,17.80
2007,07,15,03,59,17.80
2007,07,15,04,00,17.80
2007,07,15,04,01,17.80
2007,07,15,04,02,17.80
2007,07,15,04,03,17.80
2007,07,15,04,04,17.80
2007,07,15,04,05,17.70
2007,07,15,04,06,17.70
2007,07,15,04,07,17.70
2007,07,15,04,08,17.70
2007,07,15,04,09,17.70
2007,07,15,04,10,17.60
2007,07,15,04,11,17.60
2007,07,15,04,12,17.60
2007,07,15,04,13,17.60
2007,07,15,04,14,17.60
2007,07,15,04,15,17.60
2007,07,15,04,16,17.60
2007,07,15,04,17,17.50
2007,07,15,04,18,17.50
2007,07,15,04,19,17.50
2007,07,15,04,20,17.50
2007,07,15,04,21,17.40
2007,07,15,04,22,17.40
2007,07,15,04,23,17.40
2007,07,15,04,24,17.40
2007,07,15,04,25,17.40
2007,07,15,04,26,17.40
2007,07,15,04,27,17.30
2007,07,15,04,28,17.30
2007,07,15,04,29,17.30
2007,07,15,04,30,17.30
2007,07,15,04,31,17.30
2007,07,15,04,32,17.30
2007,07,15,04,33,17.30
2007,07,15,04,34,17.20
2007,07,15,04,35,17.20
2007,07,15,04,36,17.20
2007,07,15,04,37,17.20
2007,07,15,04,38,17.20
2007,07,15,04,39,17.20
2007,07,15,04,40,17.20
2007,07,15,04,41,17.20
2007,07,15,04,42,17.30
2007,07,15,04,43,17.20
2007,07,15,04,44,17.20
2007,07,15,04,45,17.20
2007,07,15,04,46,17.20
2007,07,15,04,47,17.20
2007,07,15,04,48,17.20
2007,07,15,04,49,17.20
2007,07,15,04,50,17.30
2007,07,15,04,51,17.30
2007,07,15,04,52,17.30
2007,07,15,04,53,17.30
2007,07,15,04,54,17.30
2007,07,15,04,55,17.30
2007,07,15,04,56,17.30
2007,07,15,04,57,17.30
2007,07,15,04,58,17.30
2007,07,15,04,59,17.40
2007,07,15,05,00,17.40
2007,07,15,05,01,17.40
2007,07,15,05,02,17.40
2007,07,15,05,03,17.40
2007,07,15,05,04,17.30
2007,07,15,05,05,17.30
2007,07,15,05,06,17.30
2007,07,15,05,07,17.30
2007,07,15,05,08,17.30
2007,07,15,05,09,17.30
2007,07,15,05,10,17.30
2007,07,15,05,11,17.30
2007,07,15,05,12,17.30
2007,07,15,05,13,17.30
2007,07,15,05,14,17.30
2007,07,15,05,15,17.30
2007,07,15,05,16,17.30
2007,07,15,05,17,17.30
2007,07,15,05,18,17.30
2007,07,15,05,19,17.30
2007,07,15,05,20,17.30
2007,07,15,05,21,17.30
2007,07,15,05,22,17.30
2007,07,15,05,23,17.30
2007,07,15,05,24,17.30
2007,07,15,05,25,17.30
2007,07,15,05,26,17.30
2007,07,15,05,27,17.30
2007,07,15,05,28,17.30
2007,07,15,05,29,17.30
2007,07,15,05,30,17.30
2007,07,15,05,31,17.30
2007,07,15,05,32,17.30
2007,07,15,05,33,17.30
2007,07,15,05,34,17.30
2007,07,15,05,35,17.30
2007,07,15,05,36,17.30
2007,07,15,05,37,17.30
2007,07,15,05,38,17.30
2007,07,15,05,39,17.30
2007,07,15,05,40,17.30
2007,07,15,05,41,17.30
2007,07,15,05,42,17.30
2007,07,15,05,43,17.30
2007,07,15,05,44,17.30
2007,07,15,05,45,17.30
2007,07,15,05,46,17.30
2007,07,15,05,47,17.20
2007,07,15,05,48,17.20
2007,07,15,05,49,17.20
2007,07,15,05,50,17.20
2007,07,15,05,51,17.20
2007,07,15,05,52,17.20
2007,07,15,05,53,17.20
2007,07,15,05,54,17.20
2007,07,15,05,55,17.20
2007,07,15,05,56,17.20
2007,07,15,05,57,17.20
2007,07,15,05,58,17.30
2007,07,15,05,59,17.30
2007,07,15,06,00,17.30
2007,07,15,06,01,17.30
2007,07,15,06,02,17.30
2007,07,15,06,03,17.30
2007,07,15,06,04,17.30
2007,07,15,06,05,17.30
2007,07,15,06,06,17.30
2007,07,15,06,07,17.40
2007,07,15,06,08,17.50
2007,07,15,06,09,17.60
2007,07,15,06,10,17.70
2007,07,15,06,11,17.70
2007,07,15,06,12,17.80
2007,07,15,06,13,17.80
2007,07,15,06,14,17.90
2007,07,15,06,15,17.90
2007,07,15,06,16,17.90
2007,07,15,06,17,17.90
2007,07,15,06,18,17.90
2007,07,15,06,19,17.90
2007,07,15,06,20,17.90
2007,07,15,06,21,17.90
2007,07,15,06,22,17.90
2007,07,15,06,23,17.90
2007,07,15,06,24,17.80
2007,07,15,06,25,17.90
2007,07,15,06,26,17.90
2007,07,15,06,27,17.90
2007,07,15,06,28,17.90
2007,07,15,06,29,17.90
2007,07,15,06,30,17.90
2007,07,15,06,31,17.90
2007,07,15,06,32,17.90
2007,07,15,06,33,18.00
2007,07,15,06,34,18.00
2007,07,15,06,35,18.00
2007,07,15,06,36,18.00
2007,07,15,06,37,18.00
2007,07,15,06,38,18.00
2007,07,15,06,39,18.00
2007,07,15,06,40,18.00
2007,07,15,06,41,18.00
2007,07,15,06,42,18.00
2007,07,15,06,43,18.00
2007,07,15,06,44,18.00
2007,07,15,06,45,18.00
2007,07,15,06,46,18.00
2007,07,15,06,47,18.10
2007,07,15,06,48,18.10
2007,07,15,06,49,18.00
2007,07,15,06,50,18.10
2007,07,15,06,51,18.10
2007,07,15,06,52,18.10
2007,07,15,06,53,18.10
2007,07,15,06,54,18.10
2007,07,15,06,55,18.10
2007,07,15,06,56,18.10
2007,07,15,06,57,18.10
2007,07,15,06,58,18.10
2007,07,15,06,59,18.10
2007,07,15,07,00,18.10
2007,07,15,07,01,18.00
2007,07,15,07,02,18.00
2007,07,15,07,03,18.00
2007,07,15,07,04,18.00
2007,07,15,07,05,18.00
2007,07,15,07,06,18.00
2007,07,15,07,07,18.00
2007,07,15,07,08,18.00
2007,07,15,07,09,18.00
2007,07,15,07,10,18.00
2007,07,15,07,11,18.00
2007,07,15,07,12,18.10
2007,07,15,07,13,18.10
2007,07,15,07,14,18.10
2007,07,15,07,15,18.10
2007,07,15,07,16,18.10
2007,07,15,07,17,18.10
2007,07,15,07,18,18.30
2007,07,15,07,19,18.40
2007,07,15,07,20,18.50
2007,07,15,07,21,18.70
2007,07,15,07,22,18.90
2007,07,15,07,23,19.20
2007,07,15,07,24,19.40
2007,07,15,07,25,19.50
2007,07,15,07,26,19.70
2007,07,15,07,27,19.80
2007,07,15,07,28,19.90
2007,07,15,07,29,20.00
2007,07,15,07,30,20.20
2007,07,15,07,31,20.30
2007,07,15,07,32,20.30
2007,07,15,07,33,20.40
2007,07,15,07,34,20.40
2007,07,15,07,35,20.50
2007,07,15,07,36,20.50
2007,07,15,07,37,20.60
2007,07,15,07,38,20.60
2007,07,15,07,39,20.70
2007,07,15,07,40,20.70
2007,07,15,07,41,20.70
2007,07,15,07,42,20.80
2007,07,15,07,43,20.80
2007,07,15,07,44,20.80
2007,07,15,07,45,20.80
2007,07,15,07,46,20.80
2007,07,15,07,47,20.90
2007,07,15,07,48,20.90
2007,07,15,07,49,20.90
2007,07,15,07,50,21.00
2007,07,15,07,51,21.00
2007,07,15,07,52,21.00
2007,07,15,07,53,21.00
2007,07,15,07,54,21.00
2007,07,15,07,55,21.00
2007,07,15,07,56,21.00
2007,07,15,07,57,21.00
2007,07,15,07,58,21.00
2007,07,15,07,59,20.90
2007,07,15,08,00,20.90
2007,07,15,08,01,20.90
2007,07,15,08,02,20.90
2007,07,15,08,03,20.90
2007,07,15,08,04,20.90
2007,07,15,08,05,21.00
2007,07,15,08,06,21.00
2007,07,15,08,07,21.00
2007,07,15,08,08,21.00
2007,07,15,08,09,21.00
2007,07,15,08,10,21.00
2007,07,15,08,11,21.00
2007,07,15,08,12,21.00
2007,07,15,08,13,21.10
2007,07,15,08,14,21.10
2007,07,15,08,15,21.10
2007,07,15,08,16,21.00
2007,07,15,08,17,21.00
2007,07,15,08,18,21.00
2007,07,15,08,19,21.00
2007,07,15,08,20,21.00
2007,07,15,08,21,21.00
2007,07,15,08,22,21.00
2007,07,15,08,23,21.10
2007,07,15,08,24,21.10
2007,07,15,08,25,21.10
2007,07,15,08,26,21.20
2007,07,15,08,27,21.20
2007,07,15,08,28,21.20
2007,07,15,08,29,21.30
2007,07,15,08,30,21.30
2007,07,15,08,31,21.30
2007,07,15,08,32,21.40
2007,07,15,08,33,21.40
2007,07,15,08,34,21.40
2007,07,15,08,35,21.40
2007,07,15,08,36,21.40
2007,07,15,08,37,21.50
2007,07,15,08,38,21.60
2007,07,15,08,39,21.60
2007,07,15,08,40,21.60
2007,07,15,08,41,21.70
2007,07,15,08,42,21.70
2007,07,15,08,43,21.80
2007,07,15,08,44,21.80
2007,07,15,08,45,21.80
2007,07,15,08,46,21.80
2007,07,15,08,47,21.80
2007,07,15,08,48,21.80
2007,07,15,08,49,21.80
2007,07,15,08,50,21.80
2007,07,15,08,51,21.90
2007,07,15,08,52,21.90
2007,07,15,08,53,22.00
2007,07,15,08,54,22.00
2007,07,15,08,55,22.10
2007,07,15,08,56,22.20
2007,07,15,08,57,22.30
2007,07,15,08,58,22.40
2007,07,15,08,59,22.50
2007,07,15,09,00,22.60
2007,07,15,09,01,22.70
2007,07,15,09,02,22.70
2007,07,15,09,03,22.80
2007,07,15,09,04,22.80
2007,07,15,09,05,22.80
2007,07,15,09,06,22.80
2007,07,15,09,07,22.70
2007,07,15,09,08,22.60
2007,07,15,09,09,22.60
2007,07,15,09,10,22.50
2007,07,15,09,11,22.40
2007,07,15,09,12,22.40
2007,07,15,09,13,22.40
2007,07,15,09,14,22.40
2007,07,15,09,15,22.30
2007,07,15,09,16,22.30
2007,07,15,09,17,22.30
2007,07,15,09,18,22.30
2007,07,15,09,19,22.30
2007,07,15,09,20,22.30
2007,07,15,09,21,22.30
2007,07,15,09,22,22.40
2007,07,15,09,23,22.40
2007,07,15,09,24,22.40
2007,07,15,09,25,22.40
2007,07,15,09,26,22.40
2007,07,15,09,27,22.50
2007,07,15,09,28,22.50
2007,07,15,09,29,22.60
2007,07,15,09,30,22.60
2007,07,15,09,31,22.60
2007,07,15,09,32,22.60
2007,07,15,09,33,22.70
2007,07,15,09,34,22.70
2007,07,15,09,35,22.70
2007,07,15,09,36,22.70
2007,07,15,09,37,22.80
2007,07,15,09,38,22.80
2007,07,15,09,39,22.70
2007,07,15,09,40,22.70
2007,07,15,09,41,22.60
2007,07,15,09,42,22.50
2007,07,15,09,43,22.50
2007,07,15,09,44,22.50
2007,07,15,09,45,22.50
2007,07,15,09,46,22.40
2007,07,15,09,47,22.40
2007,07,15,09,48,22.40
2007,07,15,09,49,22.30
2007,07,15,09,50,22.20
2007,07,15,09,51,22.10
2007,07,15,09,52,22.10
2007,07,15,09,53,22.20
2007,07,15,09,54,22.20
2007,07,15,09,55,22.30
2007,07,15,09,56,22.40
2007,07,15,09,57,22.40
2007,07,15,09,58,22.50
2007,07,15,09,59,22.50
2007,07,15,10,00,22.60
2007,07,15,10,01,22.60
2007,07,15,10,02,22.70
2007,07,15,10,03,22.70
2007,07,15,10,04,22.80
2007,07,15,10,05,22.80
2007,07,15,10,06,22.60
2007,07,15,10,07,22.40
2007,07,15,10,08,22.20
2007,07,15,10,09,22.10
2007,07,15,10,10,22.00
2007,07,15,10,11,22.10
2007,07,15,10,12,22.20
2007,07,15,10,13,22.30
2007,07,15,10,14,22.40
2007,07,15,10,15,22.50
2007,07,15,10,16,22.50
2007,07,15,10,17,22.60
2007,07,15,10,18,22.50
2007,07,15,10,19,22.50
2007,07,15,10,20,22.50
2007,07,15,10,21,22.50
2007,07,15,10,22,22.40
2007,07,15,10,23,22.20
2007,07,15,10,24,22.20
2007,07,15,10,25,22.10
2007,07,15,10,26,22.00
2007,07,15,10,27,22.00
2007,07,15,10,28,22.00
2007,07,15,10,29,21.90
2007,07,15,10,30,21.80
2007,07,15,10,31,21.80
2007,07,15,10,32,21.80
2007,07,15,10,33,21.60
2007,07,15,10,34,21.40
2007,07,15,10,35,21.20
2007,07,15,10,36,21.10
2007,07,15,10,37,20.90
2007,07,15,10,38,20.70
2007,07,15,10,39,20.60
2007,07,15,10,40,20.50
2007,07,15,10,41,20.50
2007,07,15,10,42,20.40
2007,07,15,10,43,20.40
2007,07,15,10,44,20.40
2007,07,15,10,45,20.50
2007,07,15,10,46,20.50
2007,07,15,10,47,20.60
2007,07,15,10,48,20.60
2007,07,15,10,49,20.70
2007,07,15,10,50,20.70
2007,07,15,10,51,20.70
2007,07,15,10,52,20.80
2007,07,15,10,53,20.80
2007,07,15,10,54,20.80
2007,07,15,10,55,20.90
2007,07,15,10,56,20.90
2007,07,15,10,57,20.90
2007,07,15,10,58,21.00
2007,07,15,10,59,21.00
2007,07,15,11,00,21.00
2007,07,15,11,01,21.20
2007,07,15,11,02,21.30
2007,07,15,11,03,21.50
2007,07,15,11,04,21.60
2007,07,15,11,05,21.60
2007,07,15,11,06,21.70
2007,07,15,11,07,21.80
2007,07,15,11,08,21.90
2007,07,15,11,09,22.00
2007,07,15,11,10,22.10
2007,07,15,11,11,22.10
2007,07,15,11,12,22.10
2007,07,15,11,13,22.00
2007,07,15,11,14,22.00
2007,07,15,11,15,21.90
2007,07,15,11,16,21.90
2007,07,15,11,17,21.80
2007,07,15,11,18,21.70
2007,07,15,11,19,21.60
2007,07,15,11,20,21.40
2007,07,15,11,21,21.20
2007,07,15,11,22,21.20
2007,07,15,11,23,21.20
2007,07,15,11,24,21.10
2007,07,15,11,25,20.90
2007,07,15,11,26,20.70
2007,07,15,11,27,20.50
2007,07,15,11,28,20.30
2007,07,15,11,29,20.30
2007,07,15,11,30,20.20
2007,07,15,11,31,20.20
2007,07,15,11,32,20.30
2007,07,15,11,33,20.40
2007,07,15,11,34,20.60
2007,07,15,11,35,20.70
2007,07,15,11,36,20.90
2007,07,15,11,37,21.10
2007,07,15,11,38,21.30
2007,07,15,11,39,21.50
2007,07,15,11,40,21.60
2007,07,15,11,41,21.80
2007,07,15,11,42,21.90
2007,07,15,11,43,22.00
2007,07,15,11,44,21.90
2007,07,15,11,45,21.90
2007,07,15,11,46,21.90
2007,07,15,11,47,21.90
2007,07,15,11,48,21.80
2007,07,15,11,49,21.70
2007,07,15,11,50,21.60
2007,07,15,11,51,21.60
2007,07,15,11,52,21.60
2007,07,15,11,53,21.60
2007,07,15,11,54,21.60
2007,07,15,11,55,21.70
2007,07,15,11,56,21.80
2007,07,15,11,57,22.00
2007,07,15,11,58,22.10
2007,07,15,11,59,22.20
2007,07,15,12,00,22.50
2007,07,15,12,01,22.60
2007,07,15,12,02,22.70
2007,07,15,12,03,22.60
2007,07,15,12,04,22.50
2007,07,15,12,05,22.40
2007,07,15,12,06,22.50
2007,07,15,12,07,22.60
2007,07,15,12,08,22.80
2007,07,15,12,09,23.00
2007,07,15,12,10,23.30
2007,07,15,12,11,23.60
2007,07,15,12,12,23.80
2007,07,15,12,13,23.80
2007,07,15,12,14,23.80
2007,07,15,12,15,23.90
2007,07,15,12,16,23.90
2007,07,15,12,17,24.00
2007,07,15,12,18,23.90
2007,07,15,12,19,23.70
2007,07,15,12,20,23.70
2007,07,15,12,21,23.70
2007,07,15,12,22,23.80
2007,07,15,12,23,23.70
2007,07,15,12,24,23.70
2007,07,15,12,25,23.70
2007,07,15,12,26,23.60
2007,07,15,12,27,23.60
2007,07,15,12,28,23.50
2007,07,15,12,29,23.50
2007,07,15,12,30,23.50
2007,07,15,12,31,23.60
2007,07,15,12,32,23.60
2007,07,15,12,33,23.60
2007,07,15,12,34,23.60
2007,07,15,12,35,23.70
2007,07,15,12,36,23.90
2007,07,15,12,37,24.10
2007,07,15,12,38,24.30
2007,07,15,12,39,24.50
2007,07,15,12,40,24.50
2007,07,15,12,41,24.40
2007,07,15,12,42,24.30
2007,07,15,12,43,24.20
2007,07,15,12,44,24.20
2007,07,15,12,45,24.20
2007,07,15,12,46,24.20
2007,07,15,12,47,24.10
2007,07,15,12,48,24.20
2007,07,15,12,49,24.20
2007,07,15,12,50,24.10
2007,07,15,12,51,23.80
2007,07,15,12,52,23.60
2007,07,15,12,53,23.50
2007,07,15,12,54,23.50
2007,07,15,12,55,23.50
2007,07,15,12,56,23.40
2007,07,15,12,57,23.40
2007,07,15,12,58,23.30
2007,07,15,12,59,23.30
2007,07,15,13,00,23.30
2007,07,15,13,01,23.20
2007,07,15,13,02,23.10
2007,07,15,13,03,22.90
2007,07,15,13,04,22.80
2007,07,15,13,05,22.80
2007,07,15,13,06,22.80
2007,07,15,13,07,22.80
2007,07,15,13,08,22.90
2007,07,15,13,09,22.90
2007,07,15,13,10,22.90
2007,07,15,13,11,22.90
2007,07,15,13,12,22.90
2007,07,15,13,13,23.00
2007,07,15,13,14,23.10
2007,07,15,13,15,23.10
2007,07,15,13,16,23.20
2007,07,15,13,17,23.20
2007,07,15,13,18,23.10
2007,07,15,13,19,23.10
2007,07,15,13,20,23.20
2007,07,15,13,21,23.30
2007,07,15,13,22,23.30
2007,07,15,13,23,23.30
2007,07,15,13,24,23.30
2007,07,15,13,25,23.40
2007,07,15,13,26,23.50
2007,07,15,13,27,23.60
2007,07,15,13,28,23.60
2007,07,15,13,29,23.70
2007,07,15,13,30,23.80
2007,07,15,13,31,23.70
2007,07,15,13,32,23.60
2007,07,15,13,33,23.60
2007,07,15,13,34,23.60
2007,07,15,13,35,23.80
2007,07,15,13,36,24.00
2007,07,15,13,37,24.00
2007,07,15,13,38,24.00
2007,07,15,13,39,24.00
2007,07,15,13,40,24.00
2007,07,15,13,41,24.00
2007,07,15,13,42,24.00
2007,07,15,13,43,23.80
2007,07,15,13,44,23.60
2007,07,15,13,45,23.50
2007,07,15,13,46,23.50
2007,07,15,13,47,23.50
2007,07,15,13,48,23.60
2007,07,15,13,49,23.70
2007,07,15,13,50,23.80
2007,07,15,13,51,23.90
2007,07,15,13,52,23.90
2007,07,15,13,53,23.80
2007,07,15,13,54,23.80
2007,07,15,13,55,23.70
2007,07,15,13,56,23.70
2007,07,15,13,57,23.70
2007,07,15,13,58,23.70
2007,07,15,13,59,23.70
2007,07,15,14,00,23.70
2007,07,15,14,01,23.70
2007,07,15,14,02,23.70
2007,07,15,14,03,23.70
2007,07,15,14,04,23.70
2007,07,15,14,05,23.70
2007,07,15,14,06,23.70
2007,07,15,14,07,23.70
2007,07,15,14,08,23.70
2007,07,15,14,09,23.70
2007,07,15,14,10,23.60
2007,07,15,14,11,23.60
2007,07,15,14,12,23.60
2007,07,15,14,13,23.50
2007,07,15,14,14,23.50
2007,07,15,14,15,23.40
2007,07,15,14,16,23.40
2007,07,15,14,17,23.40
2007,07,15,14,18,23.40
2007,07,15,14,19,23.40
2007,07,15,14,20,23.50
2007,07,15,14,21,23.70
2007,07,15,14,22,23.80
2007,07,15,14,23,23.90
2007,07,15,14,24,23.90
2007,07,15,14,25,24.00
2007,07,15,14,26,24.00
2007,07,15,14,27,23.90
2007,07,15,14,28,23.80
2007,07,15,14,29,23.80
2007,07,15,14,30,23.70
2007,07,15,14,31,23.70
2007,07,15,14,32,23.60
2007,07,15,14,33,23.70
2007,07,15,14,34,23.60
2007,07,15,14,35,23.60
2007,07,15,14,36,23.60
2007,07,15,14,37,23.50
2007,07,15,14,38,23.50
2007,07,15,14,39,23.40
2007,07,15,14,40,23.30
2007,07,15,14,41,23.30
2007,07,15,14,42,23.30
2007,07,15,14,43,23.30
2007,07,15,14,44,23.30
2007,07,15,14,45,23.30
2007,07,15,14,46,23.20
2007,07,15,14,47,23.20
2007,07,15,14,48,23.20
2007,07,15,14,49,23.20
2007,07,15,14,50,23.30
2007,07,15,14,51,23.30
2007,07,15,14,52,23.20
2007,07,15,14,53,23.10
2007,07,15,14,54,23.10
2007,07,15,14,55,23.10
2007,07,15,14,56,23.00
2007,07,15,14,57,23.00
2007,07,15,14,58,22.90
2007,07,15,14,59,22.80
2007,07,15,15,00,22.70
2007,07,15,15,01,22.60
2007,07,15,15,02,22.60
2007,07,15,15,03,22.60
2007,07,15,15,04,22.60
2007,07,15,15,05,22.60
2007,07,15,15,06,22.70
2007,07,15,15,07,22.70
2007,07,15,15,08,22.80
2007,07,15,15,09,22.80
2007,07,15,15,10,22.80
2007,07,15,15,11,22.80
2007,07,15,15,12,22.80
2007,07,15,15,13,22.90
2007,07,15,15,14,22.90
2007,07,15,15,15,22.80
2007,07,15,15,16,22.80
2007,07,15,15,17,22.80
2007,07,15,15,18,22.80
2007,07,15,15,19,22.70
2007,07,15,15,20,22.60
2007,07,15,15,21,22.50
2007,07,15,15,22,22.50
2007,07,15,15,23,22.50
2007,07,15,15,24,22.50
2007,07,15,15,25,22.50
2007,07,15,15,26,22.50
2007,07,15,15,27,22.60
2007,07,15,15,28,22.60
2007,07,15,15,29,22.60
2007,07,15,15,30,22.70
2007,07,15,15,31,22.70
2007,07,15,15,32,22.70
2007,07,15,15,33,22.80
2007,07,15,15,34,22.80
2007,07,15,15,35,22.80
2007,07,15,15,36,22.80
2007,07,15,15,37,22.80
2007,07,15,15,38,22.80
2007,07,15,15,39,22.90
2007,07,15,15,40,22.90
2007,07,15,15,41,22.90
2007,07,15,15,42,22.90
2007,07,15,15,43,22.90
2007,07,15,15,44,22.90
2007,07,15,15,45,22.90
2007,07,15,15,46,22.90
2007,07,15,15,47,22.90
2007,07,15,15,48,23.00
2007,07,15,15,49,23.00
2007,07,15,15,50,23.00
2007,07,15,15,51,23.00
2007,07,15,15,52,23.00
2007,07,15,15,53,23.00
2007,07,15,15,54,23.10
2007,07,15,15,55,23.20
2007,07,15,15,56,23.30
2007,07,15,15,57,23.30
2007,07,15,15,58,23.30
2007,07,15,15,59,23.40
2007,07,15,16,00,23.40
2007,07,15,16,01,23.50
2007,07,15,16,02,23.50
2007,07,15,16,03,23.50
2007,07,15,16,04,23.60
2007,07,15,16,05,23.50
2007,07,15,16,06,23.50
2007,07,15,16,07,23.40
2007,07,15,16,08,23.40
2007,07,15,16,09,23.30
2007,07,15,16,10,23.30
2007,07,15,16,11,23.30
2007,07,15,16,12,23.30
2007,07,15,16,13,23.30
2007,07,15,16,14,23.30
2007,07,15,16,15,23.30
2007,07,15,16,16,23.30
2007,07,15,16,17,23.40
2007,07,15,16,18,23.50
2007,07,15,16,19,23.60
2007,07,15,16,20,23.70
2007,07,15,16,21,23.80
2007,07,15,16,22,23.80
2007,07,15,16,23,23.90
2007,07,15,16,24,24.00
2007,07,15,16,25,24.00
2007,07,15,16,26,24.00
2007,07,15,16,27,23.90
2007,07,15,16,28,23.80
2007,07,15,16,29,23.70
2007,07,15,16,30,23.70
2007,07,15,16,31,23.70
2007,07,15,16,32,23.70
2007,07,15,16,33,23.70
2007,07,15,16,34,23.80
2007,07,15,16,35,23.80
2007,07,15,16,36,23.80
2007,07,15,16,37,23.80
2007,07,15,16,38,23.80
2007,07,15,16,39,23.70
2007,07,15,16,40,23.70
2007,07,15,16,41,23.60
2007,07,15,16,42,23.60
2007,07,15,16,43,23.60
2007,07,15,16,44,23.60
2007,07,15,16,45,23.60
2007,07,15,16,46,23.60
2007,07,15,16,47,23.70
2007,07,15,16,48,23.70
2007,07,15,16,49,23.70
2007,07,15,16,50,23.70
2007,07,15,16,51,23.70
2007,07,15,16,52,23.70
2007,07,15,16,53,23.70
2007,07,15,16,54,23.70
2007,07,15,16,55,23.70
2007,07,15,16,56,23.60
2007,07,15,16,57,23.60
2007,07,15,16,58,23.70
2007,07,15,16,59,23.80
2007,07,15,17,00,23.90
2007,07,15,17,01,24.00
2007,07,15,17,02,24.00
2007,07,15,17,03,24.00
2007,07,15,17,04,24.00
2007,07,15,17,05,24.10
2007,07,15,17,06,24.20
2007,07,15,17,07,24.30
2007,07,15,17,08,24.40
2007,07,15,17,09,24.50
2007,07,15,17,10,24.60
2007,07,15,17,11,24.70
2007,07,15,17,12,24.70
2007,07,15,17,13,24.60
2007,07,15,17,14,24.60
2007,07,15,17,15,24.60
2007,07,15,17,16,24.60
2007,07,15,17,17,24.60
2007,07,15,17,18,24.60
2007,07,15,17,19,24.70
2007,07,15,17,20,24.70
2007,07,15,17,21,24.70
2007,07,15,17,22,24.60
2007,07,15,17,23,24.60
2007,07,15,17,24,24.50
2007,07,15,17,25,24.30
2007,07,15,17,26,24.20
2007,07,15,17,27,24.10
2007,07,15,17,28,24.10
2007,07,15,17,29,24.10
2007,07,15,17,30,24.10
2007,07,15,17,31,24.10
2007,07,15,17,32,24.10
2007,07,15,17,33,24.10
2007,07,15,17,34,24.00
2007,07,15,17,35,23.90
2007,07,15,17,36,23.80
2007,07,15,17,37,23.80
2007,07,15,17,38,23.70
2007,07,15,17,39,23.70
2007,07,15,17,40,23.70
2007,07,15,17,41,23.70
2007,07,15,17,42,23.70
2007,07,15,17,43,23.70
2007,07,15,17,44,23.60
2007,07,15,17,45,23.70
2007,07,15,17,46,23.70
2007,07,15,17,47,23.70
2007,07,15,17,48,23.70
2007,07,15,17,49,23.70
2007,07,15,17,50,23.80
2007,07,15,17,51,23.90
2007,07,15,17,52,23.80
2007,07,15,17,53,23.80
2007,07,15,17,54,23.80
2007,07,15,17,55,23.80
2007,07,15,17,56,23.80
2007,07,15,17,57,23.80
2007,07,15,17,58,23.70
2007,07,15,17,59,23.60
2007,07,15,18,00,23.50
2007,07,15,18,01,23.40
2007,07,15,18,02,23.40
2007,07,15,18,03,23.30
2007,07,15,18,04,23.30
2007,07,15,18,05,23.30
2007,07,15,18,06,23.20
2007,07,15,18,07,23.20
2007,07,15,18,08,23.10